Location: Dillon
(41.1766°N, 107.0923°W)
Time: 04:19:44
(UTC+00:00)

SO-50 - Pass Details

Date: 08 July 2022
Orbit: 584 x 698 km, 64.6° (Epoch: 18 August)

Event Time Altitude Azimuth Distance (km) Brightness Sun altitude
Exits shadow 04:41:19 28° 114° (ESE) 1,219 ? -17.2°
Maximum altitude 04:41:21 28° 113° (ESE) 1,219 ? -17.2°
Drops below altitude 10° 04:45:26 10° 54° (NE) 2,106 ? -17.7°
Sets 04:48:02 0° 44° (NE) 3,042 ? -18.0°
